Starlink 11385

operational
NORAD ID: 62014 Int'l Des: 2024-213 Owner: SPXS Country: US Constellation: starlink
LEOCIRCULAR

About Starlink 11385

Description loading...

Live Position

Loading 3D Globe...

Upcoming Passes

Altitude History

Altitude vs Time

uPlot chart will show altitude changes over time

Two-Line Element Set

1 62014U 24213G 25260.19562309 .00139617 00000-0 11353-2 0 9997
2 62014 53.1568 176.6980 0000724 98.2406 261.8694 15.69767068 47666
Epoch: Sep 17, 2025 • Age: 18 hours

Current Status

Altitude 360.1 km
Velocity 7.69 km/s
Sub-Earth Point -1.01°S, 170.32°W
Launch Date Nov 18, 2024
Age 0.8 years
Type internet

Technical Details

Classification Payload
Mass 960.00 kg
Dry Mass 910.00 kg
Total Mass 960.00 kg
Length 0.30 m
Diameter 4.10 m
Span 29.00 m
Shape Box + pan
Manufacturer SPXS
Bus Type Starlink V2MD
Phase Status In Orbit
Owner/State SPXS/US

Large Constellations

Loading constellations...